Wind_Speed
3 3 4 4 3 3 3 2 1 1 2 1 3 3 3 3 3 2 2 2 2 2 2 2 2 2 2 2 2 2 3 2 2 3 3 3 2 0 1 2 2 2 2 2 2 1 1 1 2 2 3 2 2 3 3 3 3 3 3 3 3 3 3 3 3 3 4 4 3 3 4 4 5 5 6 6 7 7 8 9 9 9 9 9 9
3 3 4 4 3 3 2 1 0 0 1 1 3 2 2 2 2 3 3 2 2 1 1 2 1 1 2 2 1 1 2 2 1 2 2 2 2 0 0 1 2 2 1 1 1 1 1 0 1 1 2 2 1 1 1 1 1 1 2 2 2 2 2 2 3 3 4 3 4 4 4 4 5 5 6 6 7 7 8 8 9 9 9 9 9
3 3 3 3 3 2 1 1 0 1 0 1 2 3 2 3 3 3 2 1 1 1 1 1 1 1 1 1 1 1 1 1 1 1 2 2 1 1 0 1 1 2 2 1 1 1 1 0 0 0 1 2 1 0 0 0 0 0 0 1 1 2 2 2 3 3 3 3 4 4 4 5 5 6 6 7 7 8 8 9 9 9 9 9 9
4 3 3 2 2 2 1 2 1 1 1 1 2 3 3 3 3 3 1 1 1 1 1 1 1 1 1 1 1 1 1 1 1 1 1 2 1 1 1 1 1 1 1 1 1 1 1 0 0 1 2 1 1 1 1 1 1 1 1 2 2 2 2 2 3 3 3 4 4 5 5 5 6 6 7 7 8 8 9 9 9 9 10 10 10
4 4 3 3 3 2 2 2 2 2 2 3 3 3 4 3 2 2 1 1 1 1 1 1 1 1 1 1 2 1 2 1 1 1 1 1 1 0 1 1 1 1 2 2 1 1 1 1 1 2 3 3 2 2 2 2 2 2 3 3 3 3 3 3 3 3 4 4 4 5 5 5 6 7 7 8 8 9 9 9 10 10 10 10 10
5 4 4 3 3 3 3 3 3 3 3 5 5 3 3 3 2 2 2 1 0 1 1 1 1 2 2 2 3 3 2 1 1 1 1 1 1 0 1 1 1 1 1 2 2 3 3 2 2 3 3 3 3 3 3 3 4 4 4 4 4 4 4 4 3 4 4 4 5 5 6 6 6 7 8 8 9 9 9 9 10 10 9 9 10
6 5 5 4 4 4 4 4 4 4 4 5 6 4 4 3 2 2 2 1 0 1 1 1 1 3 4 4 3 4 2 1 2 1 1 1 1 0 1 1 1 1 1 1 2 3 3 3 3 3 3 4 4 4 4 4 5 6 6 5 5 5 5 6 5 5 5 5 5 6 7 7 7 7 8 8 9 9 9 9 9 9 9 9 9
7 6 6 5 5 5 5 5 4 4 5 5 4 4 3 3 2 1 2 2 1 1 1 3 3 4 5 5 4 4 2 1 2 1 1 2 1 1 1 1 1 1 1 1 2 3 3 3 4 4 4 4 4 4 5 5 5 6 7 7 7 6 7 7 6 6 6 6 6 6 6 7 7 7 7 7 8 8 8 8 8 8 8 8 8
8 7 7 6 6 6 5 5 4 4 5 5 3 4 3 2 1 1 2 2 2 1 2 4 5 4 5 5 5 4 2 1 2 2 2 2 1 1 1 1 1 1 1 2 2 2 3 4 4 4 4 4 4 4 4 4 4 5 6 7 7 8 8 8 8 7 8 8 7 7 7 7 7 7 7 7 7 7 8 7 8 8 7 7 7
9 8 7 7 6 6 5 5 5 5 5 5 4 4 4 2 1 1 2 2 3 3 2 4 5 3 3 4 4 4 2 2 2 2 2 2 1 1 1 2 1 1 1 2 2 2 3 4 4 4 4 4 4 4 4 4 4 4 5 5 6 7 7 8 8 8 8 8 7 7 7 7 6 7 7 6 6 7 8 9 8 6 5 6 6
9 9 8 8 6 6 6 5 6 5 5 5 5 6 5 3 1 2 3 3 3 3 3 3 3 2 2 3 3 3 2 2 1 1 1 1 1 1 1 2 2 2 2 2 2 3 3 3 4 3 4 4 4 4 4 4 4 4 4 4 4 5 5 6 6 7 7 7 6 6 6 6 6 6 6 7 7 7 8 9 6 4 4 5 5
10 11 10 8 6 6 6 6 6 6 5 5 4 5 5 3 2 2 3 3 3 3 4 3 2 0 1 1 1 2 2 1 0 0 1 1 1 1 1 2 2 2 2 2 3 3 3 3 3 3 3 4 4 4 4 5 5 5 4 4 4 4 4 4 5 5 6 5 5 6 6 6 6 6 7 7 6 7 8 7 4 3 3 4 4
11 12 11 9 8 7 7 7 6 6 6 5 5 5 4 3 3 2 3 3 3 3 3 3 2 1 2 2 2 1 1 1 1 1 1 1 2 2 2 2 2 2 3 3 3 3 3 3 3 3 3 3 4 4 5 5 5 5 5 5 4 4 4 4 4 4 4 4 4 5 6 6 6 6 6 5 5 6 6 4 3 2 2 3 3
12 13 12 11 9 9 8 8 7 6 6 6 5 5 4 4 3 3 3 3 3 3 3 2 1 0 1 1 1 0 1 2 2 2 2 2 2 2 3 3 3 3 4 4 4 4 4 4 4 3 3 4 4 4 4 4 5 5 5 5 5 5 4 4 4 4 4 4 4 5 6 7 7 6 5 5 5 4 3 2 1 1 2 2 3
12 13 13 12 11 10 9 9 9 7 6 6 6 5 4 4 3 3 3 3 3 3 3 3 1 1 1 1 0 1 2 2 3 3 3 3 3 3 3 4 4 4 5 5 4 5 5 5 5 4 4 4 4 4 4 5 5 5 5 5 5 5 5 5 4 5 5 4 5 6 7 8 7 5 5 4 3 1 1 1 1 2 1 1 2
13 13 13 13 13 12 11 11 10 9 7 7 6 6 5 4 4 4 3 3 3 2 3 3 2 2 1 0 0 1 1 0 2 3 3 4 4 3 4 4 4 5 5 5 5 5 6 6 5 5 4 4 5 5 5 6 6 6 6 5 5 5 5 5 5 5 5 5 6 7 8 8 5 4 3 2 1 0 1 1 1 1 1 1 2
14 13 13 14 14 14 13 11 11 11 9 8 7 6 6 5 5 6 5 4 4 3 4 4 3 2 2 0 1 1 2 3 2 2 3 4 4 3 4 4 4 5 6 6 6 6 6 7 7 6 5 5 5 5 6 6 6 6 6 5 5 5 5 5 6 6 5 5 6 7 7 5 3 2 2 2 1 1 1 1 1 1 1 1 1
15 13 13 14 14 14 13 12 12 12 11 10 9 8 7 6 6 6 6 6 5 4 4 5 4 4 4 2 2 2 3 4 3 1 2 3 4 4 4 4 4 6 7 7 7 7 7 7 7 7 7 6 6 6 6 7 6 7 7 6 6 5 5 5 6 7 7 7 7 7 6 4 3 3 3 3 3 2 3 2 2 2 2 1 1
16 15 14 14 14 14 14 13 12 12 12 12 11 10 8 6 6 6 5 6 6 6 5 5 5 5 6 5 3 3 4 4 4 4 2 1 2 4 4 4 5 6 7 7 7 7 7 8 8 8 8 8 8 8 8 8 7 7 7 7 7 6 6 6 6 7 8 8 8 7 6 5 4 4 4 4 4 4 4 4 3 3 2 2 1
18 17 15 15 15 14 14 13 13 13 13 13 13 11 9 7 7 6 5 5 7 7 6 6 6 5 6 7 6 5 5 5 5 4 4 3 2 2 3 4 6 7 7 7 6 6 7 8 9 8 9 9 9 9 9 9 8 8 8 7 8 8 7 6 6 7 8 8 8 7 6 6 6 6 6 6 6 5 5 5 5 4 4 3 2
19 19 17 17 16 15 15 15 14 13 13 13 14 13 11 9 8 7 6 6 7 9 8 7 8 6 5 6 7 6 6 5 4 4 4 4 3 4 4 4 6 6 7 7 7 7 8 9 10 10 10 11 11 11 10 10 10 9 9 8 8 8 8 7 7 7 8 8 8 8 7 7 7 7 7 7 7 7 7 6 6 6 5 5 4
20 20 20 19 18 17 17 16 15 14 14 13 14 14 13 11 9 8 7 7 7 8 10 10 9 7 6 6 6 6 6 6 4 3 3 4 4 6 7 6 6 5 5 7 7 8 9 10 11 11 12 12 12 12 12 11 11 10 9 9 8 9 9 8 8 8 9 9 9 9 9 9 9 9 8 9 9 9 8 8 8 8 7 7 6
22 22 22 21 20 19 19 18 17 16 15 14 15 15 14 12 11 9 8 8 7 8 10 11 11 10 8 7 7 6 6 6 6 5 5 5 5 7 8 7 8 7 7 9 10 10 11 12 13 13 13 14 14 13 13 13 12 11 10 10 10 9 10 9 9 9 10 10 10 10 10 10 10 10 10 10 10 10 10 10 10 10 9 9 9
25 24 23 23 22 20 20 20 20 19 17 15 15 14 14 14 13 10 9 9 8 8 9 11 12 12 10 8 8 8 8 8 8 6 7 7 6 8 9 7 8 8 8 11 12 10 11 12 13 15 15 15 15 14 14 13 13 12 11 11 11 10 11 10 10 10 11 11 11 11 11 12 12 12 12 11 11 11 12 12 12 12 11 11 11
27 27 25 24 24 22 21 21 20 19 18 16 15 14 15 16 15 13 11 10 10 9 10 11 11 12 11 9 8 8 9 9 9 8 8 7 7 8 9 7 8 9 8 9 10 10 11 12 13 15 15 15 16 16 15 15 14 13 12 12 12 11 12 12 11 12 12 13 13 13 13 13 13 13 13 13 13 13 13 13 13 13 13 13 13
28 28 27 26 26 24 22 21 20 19 18 17 16 14 14 15 16 16 14 12 11 10 10 11 12 13 13 12 10 9 9 9 9 9 9 8 8 8 8 7 9 10 8 7 8 9 9 10 13 13 14 14 15 15 15 16 16 15 14 14 15 14 13 13 13 13 14 14 15 15 16 16 15 15 15 15 15 15 15 15 15 15 15 15 15
29 29 28 26 26 25 23 22 21 20 19 18 18 16 15 14 14 15 15 14 12 11 11 12 13 13 14 14 13 11 11 11 9 9 9 9 9 8 7 6 7 8 8 7 8 9 9 10 12 11 10 11 12 14 15 15 17 17 16 17 18 18 16 16 16 16 16 16 17 17 18 18 18 18 17 17 17 17 17 17 17 17 17 17 17
29 29 28 27 26 26 25 23 22 21 20 19 19 17 16 14 12 13 14 14 12 11 12 13 13 13 13 15 15 13 13 13 11 11 11 11 11 10 8 7 6 6 6 6 7 8 7 7 8 8 6 5 6 9 11 13 15 16 17 18 20 21 20 19 19 19 19 19 19 19 19 20 21 20 20 20 20 20 20 20 20 20 20 20 19
29 28 28 27 26 26 26 24 23 23 21 20 20 19 17 15 13 14 15 16 13 11 11 13 14 13 13 14 15 15 15 14 13 13 13 13 13 13 11 9 7 6 5 6 6 7 6 6 7 7 5 4 6 8 10 11 12 14 17 19 20 22 22 21 22 22 22 22 22 22 21 22 22 23 23 23 23 23 23 23 23 23 22 22 22
29 28 27 27 27 26 26 25 24 24 22 22 21 20 19 16 13 13 15 17 15 12 11 12 14 14 14 14 15 16 15 15 14 14 14 14 14 15 14 12 10 9 7 7 7 9 9 8 8 8 9 12 15 16 16 16 14 13 15 18 20 21 22 22 23 24 25 25 25 25 25 25 25 25 26 26 26 26 26 25 25 25 25 24 24
29 29 27 27 27 27 27 26 26 25 24 23 22 22 20 16 12 12 14 16 17 15 13 11 13 16 16 15 16 17 16 15 14 14 15 15 14 15 15 15 14 13 11 9 8 9 9 9 9 11 16 21 22 21 21 20 18 16 16 18 19 20 21 23 24 25 26 26 27 28 28 28 28 28 28 28 28 28 28 28 28 27 27 26 26
29 28 28 27 27 27 27 26 26 26 26 25 23 22 20 15 12 12 13 14 16 18 17 15 16 18 18 17 17 17 17 17 16 16 16 16 16 16 16 17 17 16 14 11 11 13 14 14 17 18 19 22 24 24 23 23 22 20 19 20 21 21 22 24 25 25 26 27 28 29 30 31 31 31 31 31 31 30 30 30 30 30 30 29 28
30 29 28 28 28 27 26 26 26 26 26 26 25 22 20 16 13 12 12 12 13 15 17 18 18 19 19 19 19 19 19 18 18 17 17 17 17 17 17 18 17 17 16 14 13 17 17 17 21 24 22 22 24 26 25 24 24 22 21 21 22 23 24 25 26 27 27 27 28 29 30 32 33 34 34 34 34 34 34 33 33 32 32 31 30
30 30 29 28 29 28 27 26 26 27 26 26 26 24 23 21 17 14 13 13 13 14 15 17 17 17 17 17 18 19 19 19 20 19 17 16 15 15 16 16 16 17 18 17 15 16 18 17 18 21 24 24 25 26 25 25 24 24 24 25 26 26 27 27 28 29 30 29 29 29 30 31 32 34 35 36 37 37 37 36 36 35 34 33 33
29 31 29 28 29 28 27 27 27 27 26 26 26 25 25 25 22 19 17 16 15 15 16 17 17 17 16 15 16 17 16 16 19 20 18 16 16 15 15 15 17 17 18 20 18 16 19 19 16 16 18 19 23 27 27 27 27 27 27 28 29 29 30 30 30 31 32 32 31 31 31 32 32 33 34 36 37 39 40 39 38 37 36 35 35
27 30 30 29 28 28 28 27 27 27 27 26 25 25 25 25 24 23 22 20 19 18 19 19 18 18 18 18 17 15 14 14 16 18 17 17 17 17 16 17 18 19 19 20 22 19 18 19 19 19 20 21 25 28 27 27 29 29 29 30 30 31 32 32 32 33 33 33 33 33 33 33 34 34 35 36 36 37 39 40 41 40 39 38 37
25 27 29 29 29 28 28 28 28 28 28 27 26 26 25 25 25 24 23 23 23 23 23 23 21 20 20 20 18 15 14 15 16 16 16 16 16 16 17 18 19 20 19 20 22 21 19 19 21 22 23 25 27 28 28 26 25 26 28 30 30 31 32 32 31 32 33 33 33 33 33 33 34 35 36 37 38 38 38 39 41 42 42 40 39
25 25 27 29 29 29 29 28 28 29 28 28 28 27 26 25 25 25 24 24 25 25 24 23 22 22 22 22 20 18 17 17 18 17 15 15 15 14 16 19 18 17 17 18 19 18 19 21 21 21 21 22 22 25 27 26 22 22 24 26 26 28 32 33 31 31 31 32 33 33 33 33 33 34 35 36 37 38 38 39 40 42 43 43 41
25 25 25 27 29 30 30 29 29 29 29 29 29 29 28 26 26 26 25 25 24 25 25 24 22 21 22 22 21 21 21 21 21 19 18 17 16 15 16 17 16 15 15 17 17 18 19 20 21 21 20 19 19 20 22 24 24 23 25 24 22 24 29 31 30 30 30 32 34 35 35 34 34 35 34 35 35 36 37 39 40 41 42 44 44
27 26 25 25 27 29 30 30 30 29 30 30 30 30 30 29 28 27 26 25 24 24 25 24 23 22 22 21 20 20 22 24 24 22 21 20 17 16 15 15 15 15 16 17 18 20 20 20 21 21 20 20 19 17 16 16 18 20 20 19 18 21 27 29 30 31 32 33 34 34 34 32 32 35 34 35 36 35 35 38 40 41 42 43 44
28 27 25 24 25 27 28 29 29 28 29 30 31 31 30 30 29 26 25 25 25 24 23 23 22 23 24 21 20 20 21 25 25 24 24 23 21 19 17 15 15 16 17 17 19 21 21 20 21 21 21 20 18 18 15 12 14 18 17 15 16 20 25 29 34 34 33 32 32 33 33 28 27 32 34 35 36 35 35 36 39 41 41 40 42
29 27 25 24 24 25 26 27 27 27 28 31 32 32 31 30 28 25 24 25 26 24 23 23 22 23 24 23 22 22 24 26 26 26 26 26 25 25 23 20 19 18 18 19 21 22 21 21 20 19 20 20 18 19 18 16 16 16 15 14 15 19 23 27 34 33 26 23 25 29 34 31 27 29 33 34 35 36 36 37 37 37 35 35 39
29 27 26 26 26 25 24 24 25 26 29 33 34 33 33 32 29 25 23 23 25 25 24 24 24 23 23 22 22 23 25 27 27 27 27 27 27 27 26 26 24 23 22 22 22 24 23 23 23 21 21 21 21 20 19 19 15 13 15 14 12 20 25 23 26 27 20 18 20 25 35 36 29 28 33 35 34 35 39 42 39 32 28 31 37
29 28 27 28 28 26 24 24 24 25 29 33 34 34 33 33 31 28 24 21 21 23 23 23 23 23 22 21 20 21 25 27 26 26 27 28 28 27 27 27 27 27 27 26 25 25 25 25 25 26 24 23 24 21 19 20 17 15 18 11 8 24 33 26 26 31 28 24 23 26 35 34 25 25 34 39 38 37 41 44 39 31 27 32 36
28 28 28 28 27 27 26 25 25 26 27 31 34 35 34 33 32 30 27 23 21 22 22 22 23 23 23 22 21 22 25 27 27 27 27 27 28 27 27 27 28 28 29 29 29 29 29 28 27 28 26 23 24 22 21 25 25 23 19 7 5 27 38 32 35 40 37 32 28 27 34 35 28 26 33 39 38 39 44 45 38 35 35 36 35
27 28 29 27 27 28 28 28 27 26 27 30 33 34 34 33 32 31 30 27 24 23 23 23 24 24 25 25 24 24 25 26 27 28 27 27 26 23 22 23 25 26 27 28 29 30 32 33 32 32 30 27 28 27 27 31 31 29 26 15 13 29 39 37 40 43 40 39 35 28 28 37 37 31 31 36 34 35 44 47 40 39 40 38 34
27 30 30 28 27 29 30 29 27 26 28 31 33 33 33 33 31 30 31 30 28 25 24 25 26 27 28 28 27 26 26 25 27 27 26 25 23 20 19 20 21 22 22 24 26 27 29 31 33 34 34 33 33 30 27 29 28 28 29 23 18 24 30 31 36 41 41 42 39 29 25 34 37 29 31 37 33 32 43 47 42 40 40 38 37
25 27 28 28 27 28 29 28 27 27 28 31 33 34 33 32 31 30 32 33 31 28 26 26 27 29 30 29 27 27 27 28 29 29 28 27 23 21 21 21 21 21 21 21 23 26 28 30 31 33 33 32 32 30 29 29 30 31 31 29 26 26 25 24 29 36 39 38 33 27 26 32 33 29 32 36 31 32 40 43 41 40 39 38 38
23 24 25 26 26 27 27 27 27 28 28 30 33 34 33 32 31 31 32 33 32 30 29 28 28 29 31 31 29 28 28 30 31 30 29 28 26 24 23 22 22 22 22 21 22 25 27 29 29 30 31 31 31 30 29 29 30 31 31 31 31 29 24 21 21 26 31 31 26 25 29 33 32 32 36 36 33 35 37 36 35 35 35 37 38
25 24 24 25 25 26 27 27 28 28 28 29 33 34 34 33 32 32 33 33 31 30 29 29 29 31 32 33 32 30 30 31 32 31 30 29 27 26 25 23 23 23 22 21 21 22 23 24 26 27 28 28 28 29 31 32 31 29 28 29 31 28 23 21 21 23 27 29 25 22 26 30 29 31 34 34 33 34 35 35 35 32 31 33 35
25 24 23 23 23 24 26 27 29 29 28 27 30 33 34 34 33 33 33 31 29 28 28 27 28 30 32 34 34 34 34 34 33 31 30 29 29 28 25 23 24 24 23 21 21 21 21 22 23 23 23 25 29 32 33 32 28 25 23 24 26 26 24 23 24 23 21 23 22 19 22 27 28 29 30 27 24 25 27 27 28 30 32 33 32
Wind_Direction
123 125 127 127 131 129 119 106 98 87 74 28 299 327 350 6 7 338 315 306 319 325 327 334 338 358 13 4 10 22 28 35 35 42 46 46 52 60 87 116 125 122 135 136 142 171 193 143 108 116 114 93 87 83 82 82 80 78 74 73 66 59 55 46 36 27 27 30 29 23 16 6 1 356 354 355 354 352 352 353 356 356 353 351 350
147 145 146 146 154 153 143 147 148 159 78 342 301 326 340 347 352 330 318 303 307 315 323 333 323 333 342 345 348 353 9 16 17 29 45 57 72 91 143 148 152 154 149 130 142 159 186 151 90 143 139 111 94 77 82 75 73 72 61 53 33 25 19 16 11 6 12 15 11 5 359 352 349 347 345 346 345 346 347 347 347 347 346 345 345
171 160 162 165 176 179 186 197 200 281 74 33 325 325 327 332 329 317 327 322 311 325 359 8 356 359 355 357 341 311 341 359 33 26 35 61 77 120 258 244 178 169 171 167 188 160 141 159 79 226 181 131 150 251 72 43 44 36 359 342 331 335 337 344 345 345 349 351 351 349 345 341 340 339 338 340 342 342 341 340 340 340 339 340 341
182 177 180 186 208 213 227 229 250 296 353 17 309 302 301 303 306 314 339 84 58 3 17 31 42 30 17 2 347 335 330 337 79 45 15 36 47 109 202 278 273 213 203 203 186 147 118 269 312 260 241 202 200 245 266 267 273 277 286 286 292 296 302 316 320 321 325 329 333 334 335 334 331 331 333 333 333 333 333 332 332 332 332 333 336
200 199 205 217 228 231 250 255 260 272 305 307 286 284 294 301 326 355 16 56 40 359 5 22 28 17 14 347 335 328 340 360 80 49 359 10 26 67 218 267 279 239 234 252 257 242 238 240 236 228 229 229 225 231 242 252 260 262 263 267 274 279 283 288 296 303 309 313 319 320 319 321 321 322 323 321 322 324 325 326 325 327 329 332 336
210 215 220 234 239 241 255 259 262 264 286 304 303 310 317 334 11 5 353 9 323 288 341 346 325 353 349 335 329 317 331 22 51 14 342 328 16 30 270 280 280 242 236 249 256 261 263 258 251 243 240 249 249 245 249 249 253 263 266 264 263 266 271 272 274 281 290 295 299 301 301 303 306 310 314 314 317 321 323 324 325 328 331 334 340
214 221 228 238 249 255 261 265 266 269 280 296 309 329 337 347 4 342 322 317 269 281 312 308 318 328 321 319 313 309 322 10 358 2 336 316 345 343 270 263 270 278 273 261 266 267 270 277 275 271 266 266 266 262 265 259 254 266 275 273 269 268 269 272 274 272 279 285 284 287 293 298 302 305 308 312 317 320 324 326 329 334 336 339 344
219 225 233 240 249 258 262 265 268 273 276 282 302 322 331 340 352 337 315 317 314 280 304 317 321 318 315 313 300 298 306 343 350 2 337 326 327 276 282 273 264 273 277 273 282 281 283 286 280 280 276 274 277 274 275 272 262 264 271 273 274 273 269 270 275 277 281 287 289 292 296 301 306 307 308 313 316 320 326 331 333 337 341 345 352
227 231 238 246 253 258 260 262 266 269 274 281 292 300 312 328 350 347 316 319 322 307 321 322 320 320 317 307 292 286 284 320 347 353 337 332 328 283 287 290 283 265 270 275 277 280 289 291 284 288 290 285 284 279 277 278 272 268 272 276 276 275 273 273 277 280 281 286 293 297 299 302 306 307 310 313 314 318 327 332 334 338 342 350 0
233 237 241 250 257 258 255 254 257 260 268 280 286 290 315 342 322 321 307 310 318 312 310 312 313 322 320 298 284 278 281 300 334 346 345 339 328 308 280 285 278 248 247 264 273 274 285 294 294 290 293 293 293 289 281 279 279 280 285 285 282 278 271 272 276 280 282 283 289 294 295 299 304 307 307 309 313 320 328 332 335 341 347 353 359
236 240 242 250 257 256 251 247 251 257 262 271 282 296 323 344 289 283 297 305 306 285 264 270 283 315 325 303 288 279 277 285 327 345 341 334 324 298 265 268 261 249 242 249 267 277 280 288 292 286 284 289 292 293 289 289 287 288 294 292 289 285 275 274 277 282 286 285 287 292 294 299 304 307 303 305 315 323 327 331 340 350 350 355 5
239 241 240 242 250 252 247 245 248 256 258 255 263 284 308 319 274 274 297 307 296 258 230 228 222 50 33 16 330 291 268 261 218 305 317 319 310 284 253 250 254 253 249 251 260 273 281 285 289 285 281 283 283 279 274 275 280 283 292 292 287 284 279 279 281 284 289 288 287 291 294 298 301 302 302 303 311 320 324 329 344 1 1 15 34
240 240 238 237 244 248 245 244 245 251 258 257 255 265 284 301 292 285 292 302 297 258 221 202 184 140 86 82 57 21 270 275 236 223 258 270 274 272 253 244 249 252 252 257 262 267 274 283 289 287 279 276 278 275 268 264 267 273 279 285 284 279 278 280 281 283 287 288 286 287 292 295 295 298 299 300 309 319 322 328 346 11 31 48 49
240 237 236 237 243 249 250 247 247 250 257 265 270 273 287 303 291 273 278 282 282 262 213 186 198 226 124 123 105 184 248 268 257 234 235 241 249 257 256 254 250 250 255 260 263 262 262 266 272 277 276 274 277 282 283 275 268 270 273 277 276 271 273 277 278 279 282 283 277 279 286 291 296 300 293 293 307 319 330 351 29 66 68 60 44
240 237 238 240 245 250 253 252 251 254 259 266 274 275 280 286 270 259 273 271 270 261 212 196 174 123 134 168 244 273 248 242 247 242 237 239 240 247 255 259 257 259 263 265 268 264 259 261 265 269 271 274 280 284 289 286 277 274 275 277 272 262 258 260 264 268 268 266 266 269 276 285 298 306 297 294 307 325 44 69 90 97 77 57 48
239 239 242 246 250 251 254 255 253 255 260 265 270 272 273 273 260 255 258 255 255 248 223 213 182 155 149 79 269 275 287 340 272 247 239 241 240 246 254 258 261 264 268 269 269 268 264 264 265 268 272 275 279 279 279 281 280 280 280 282 280 267 252 248 251 259 259 257 264 270 274 282 296 308 300 289 270 148 133 123 123 118 108 70 62
239 242 247 251 253 252 254 256 255 255 257 261 264 265 266 265 256 254 252 251 250 243 228 216 201 201 202 356 314 314 26 13 328 254 237 250 251 250 255 260 262 269 278 277 272 272 268 265 266 270 279 284 284 280 276 276 276 275 276 278 278 276 266 257 254 256 252 247 259 272 276 281 288 288 285 262 219 200 196 183 175 173 164 129 94
239 242 248 251 253 252 254 256 255 255 255 257 258 258 260 258 256 256 250 251 251 247 234 220 221 226 223 261 310 336 5 349 331 325 268 255 256 258 261 264 263 274 285 284 279 277 270 267 270 274 281 287 290 287 282 282 279 273 268 265 264 269 273 271 264 258 252 249 256 267 273 268 260 263 261 246 235 224 218 211 203 198 189 174 143
239 241 245 248 251 251 253 256 256 255 253 253 253 254 255 252 260 262 253 251 247 244 245 232 235 243 237 246 265 280 307 318 317 323 319 267 256 266 263 264 266 270 277 278 276 275 272 269 270 274 280 285 289 290 289 290 289 281 271 263 259 263 269 271 266 257 253 255 260 263 260 248 244 251 249 243 240 233 228 224 217 212 210 213 211
237 240 241 244 248 249 250 254 255 253 252 251 248 249 254 256 261 264 255 249 242 240 248 246 246 253 252 252 254 265 289 304 302 298 299 306 310 292 269 264 266 263 266 269 267 267 268 270 268 270 275 280 283 286 286 287 289 289 284 275 263 261 264 264 260 255 251 253 257 258 253 244 243 245 244 243 242 239 236 232 226 223 224 230 230
235 238 239 241 245 247 248 250 253 254 252 249 245 244 249 255 258 261 257 251 244 241 243 247 250 256 262 260 256 262 279 295 297 276 276 293 307 321 316 291 275 265 264 268 267 265 265 267 270 270 272 276 279 281 282 282 284 287 287 284 271 261 260 260 258 254 250 249 251 252 249 245 244 244 244 245 245 243 240 235 231 230 232 234 233
235 237 238 240 244 246 247 249 251 254 254 249 246 244 247 252 254 257 259 255 250 246 245 247 251 255 263 260 252 261 273 285 292 280 275 279 284 304 312 307 300 291 280 278 273 270 269 268 271 271 271 275 277 279 280 281 283 284 283 280 273 265 260 258 255 249 246 247 247 248 247 244 245 246 246 246 247 245 242 239 235 234 237 237 236
235 237 238 239 243 246 246 249 250 252 254 252 249 245 245 250 251 253 257 258 254 250 250 251 252 254 258 255 250 256 266 278 291 294 287 284 287 300 308 311 308 301 294 296 291 280 276 273 272 270 269 273 276 276 277 279 280 282 280 274 270 268 264 259 254 248 244 245 246 245 245 244 245 247 247 246 245 245 243 241 239 238 240 240 240
234 236 238 239 242 245 246 247 248 249 251 253 253 248 245 248 250 251 253 255 254 250 251 251 251 252 250 250 253 256 259 267 279 285 281 286 294 301 307 313 306 296 295 302 299 288 280 275 273 274 273 272 273 272 273 275 277 278 278 275 270 269 268 265 259 253 248 247 247 246 244 243 244 245 246 246 243 243 242 241 240 241 241 242 242
231 234 237 238 240 244 247 247 247 248 249 251 254 253 250 249 250 251 252 253 252 249 252 252 252 251 248 250 256 258 256 258 269 274 271 274 277 287 299 303 295 294 298 300 298 294 287 280 277 281 280 275 272 270 268 268 270 271 271 273 272 269 268 268 265 260 256 253 251 249 247 245 244 245 245 245 243 242 242 242 242 241 242 242 242
231 234 236 236 238 241 246 248 247 248 249 248 251 255 255 252 251 253 254 254 251 248 253 255 255 255 251 251 255 257 261 261 263 266 265 264 266 278 294 295 288 289 290 287 289 291 290 291 294 293 286 278 272 269 267 266 267 268 266 267 269 269 267 267 267 265 262 259 257 255 252 249 247 246 245 244 244 243 242 242 242 242 242 243 243
234 236 238 238 238 240 243 247 247 248 249 248 248 253 256 252 250 251 252 253 249 247 250 253 255 257 255 255 256 257 263 266 264 263 263 263 266 274 283 289 290 288 286 283 280 277 277 291 304 306 297 286 276 271 270 268 267 268 266 264 265 266 266 264 265 265 264 262 261 259 257 254 251 249 248 246 245 244 244 243 243 244 244 245 247
235 237 239 240 240 240 242 245 247 248 250 249 247 249 253 250 246 246 247 247 244 242 246 250 253 256 257 258 258 257 262 266 266 264 265 266 267 266 262 267 279 289 293 289 282 281 276 283 302 313 319 316 298 286 281 276 272 270 268 265 264 265 265 264 263 264 264 263 262 261 260 258 256 253 251 249 248 247 247 247 247 248 248 248 250
235 236 237 239 240 240 241 244 247 249 250 250 248 247 250 249 245 247 248 247 245 242 243 248 251 251 253 257 260 260 262 266 268 268 271 272 270 265 259 256 258 271 290 291 287 286 276 269 282 292 302 319 318 309 299 291 285 277 271 267 266 266 265 265 264 264 264 264 263 262 262 261 260 258 255 253 251 251 251 251 251 252 252 252 253
233 234 235 238 240 240 241 242 245 248 249 251 250 247 247 246 243 245 248 248 246 243 242 245 249 251 252 255 260 262 264 267 268 268 272 274 272 268 265 257 251 254 267 280 286 280 270 266 261 261 278 295 301 302 299 296 293 284 275 269 267 267 267 267 266 265 265 265 264 264 263 262 261 260 258 255 254 253 253 254 254 254 255 255 255
231 233 234 236 238 240 241 242 244 246 249 250 250 248 245 241 236 238 245 246 244 244 244 242 248 254 256 257 260 263 265 267 267 267 272 275 273 270 266 263 258 252 251 262 277 271 263 265 262 266 282 293 297 298 296 296 295 290 281 276 274 274 272 269 267 267 266 265 265 264 263 262 261 260 259 258 256 255 255 255 255 255 255 255 255
231 232 234 235 238 240 240 240 241 243 246 248 248 246 241 236 232 234 241 244 243 244 246 247 252 257 259 259 261 264 265 267 268 269 272 275 274 270 267 265 262 256 248 245 259 268 265 268 275 279 284 290 295 296 294 295 297 294 288 284 284 283 278 274 274 273 271 269 267 266 264 263 262 261 260 260 259 257 257 256 255 255 255 255 255
230 231 233 236 238 240 240 239 240 242 245 246 246 244 240 237 234 233 237 239 241 244 247 249 252 256 259 261 262 265 266 267 268 267 268 272 273 270 268 265 262 259 254 244 254 272 274 273 280 286 288 289 293 295 296 296 298 298 295 291 289 286 282 281 282 281 280 277 274 271 269 267 265 263 262 260 259 258 257 257 256 255 255 255 255
231 232 234 236 239 241 240 240 242 243 245 245 244 244 243 242 238 234 234 235 238 242 245 246 247 251 256 258 260 264 266 267 268 267 265 263 262 261 263 263 260 260 261 257 256 270 278 279 281 287 291 291 292 295 297 297 297 298 296 293 292 289 286 285 284 284 285 284 281 278 275 272 269 266 264 261 259 258 258 257 257 257 256 256 255
229 232 233 235 238 241 241 241 243 244 245 245 244 244 246 247 244 240 239 238 237 238 242 245 248 250 250 252 256 258 259 262 266 267 264 260 259 257 257 259 260 260 263 264 260 262 274 281 281 284 287 287 290 294 296 297 298 297 294 293 292 290 289 288 286 285 286 285 284 282 280 278 275 272 268 264 261 259 258 257 257 258 258 257 256
225 231 233 234 237 240 240 240 242 243 244 245 244 245 247 248 248 246 246 246 243 244 248 251 253 252 253 256 255 254 253 254 260 263 263 262 263 264 264 263 265 266 265 266 266 263 267 277 280 281 284 286 289 294 294 294 297 297 296 296 294 291 291 290 287 287 289 289 287 285 283 281 279 276 273 269 265 261 258 257 257 256 257 257 256
221 227 231 233 234 237 238 239 241 243 244 244 244 246 247 249 251 250 250 251 251 252 255 257 258 257 259 261 258 254 253 251 256 260 259 261 264 265 267 267 267 269 269 269 270 266 263 269 276 280 284 286 289 294 295 294 294 296 297 297 297 296 296 294 290 288 291 294 292 289 287 284 281 278 276 273 270 266 262 259 256 254 254 255 255
217 221 228 230 232 235 236 237 240 242 244 244 245 247 247 248 252 252 251 253 254 256 258 259 260 261 263 264 262 260 258 255 257 260 258 259 260 257 260 266 269 268 268 270 270 268 264 267 273 276 278 280 283 289 295 295 292 292 294 294 295 297 299 299 295 293 294 295 295 293 289 286 283 280 277 275 272 270 267 262 258 255 252 251 252
215 218 221 226 230 235 237 237 239 241 243 244 245 247 247 247 250 251 251 251 252 255 258 258 258 258 261 263 263 263 264 263 264 264 264 263 262 259 259 264 266 265 269 274 272 270 270 271 276 277 277 278 276 279 289 294 292 291 291 290 289 295 299 298 296 295 295 295 295 295 292 288 286 283 279 277 274 270 268 265 261 257 253 249 248
215 218 218 220 227 232 235 236 237 239 241 243 244 245 246 247 247 248 249 249 250 252 257 259 258 258 258 258 257 259 263 268 270 270 269 266 263 262 262 264 267 265 269 274 273 273 273 274 278 281 284 285 282 279 282 284 285 287 289 287 286 292 297 296 295 294 295 295 295 294 290 285 285 287 285 281 278 274 271 268 264 260 256 252 249
216 218 218 217 220 227 231 233 234 234 236 240 242 242 244 245 245 244 245 247 248 248 252 255 256 258 259 256 253 253 259 268 275 277 277 274 269 266 264 265 269 271 272 274 275 275 275 275 279 283 286 286 287 287 280 269 274 285 289 285 283 291 296 296 295 295 294 295 296 294 290 283 280 286 287 283 283 282 277 274 270 266 263 259 255
218 217 217 215 217 222 226 228 230 231 234 239 241 242 242 243 243 241 241 245 247 247 248 250 252 255 257 257 256 257 262 269 276 280 281 280 277 275 272 269 267 269 272 275 277 278 278 278 280 284 285 286 289 290 284 276 278 285 289 286 288 296 297 294 297 299 297 296 298 297 297 292 282 282 284 281 281 282 280 277 274 271 271 272 268
218 216 216 216 218 221 222 224 226 228 234 240 243 243 244 244 241 238 238 242 245 246 246 248 251 252 254 256 257 260 265 271 275 279 281 281 281 280 279 277 273 269 268 269 273 276 276 277 279 281 282 284 288 290 287 283 280 281 289 293 299 301 296 294 297 299 298 301 303 298 296 295 286 279 281 280 277 276 278 279 275 270 276 282 276
216 215 216 218 221 222 221 222 224 226 234 241 244 244 245 245 243 239 237 238 240 242 243 244 247 250 251 253 254 257 264 269 271 274 277 280 282 282 281 281 279 275 271 266 266 269 271 275 278 280 280 283 287 289 288 287 288 288 287 289 304 296 290 285 283 285 289 298 302 296 291 291 286 278 280 283 280 276 280 282 275 263 266 273 269
214 215 218 219 220 221 220 222 224 225 233 241 245 246 245 245 245 241 238 238 238 240 240 241 244 247 249 252 252 255 262 268 269 269 271 275 279 281 283 282 281 280 277 273 269 267 267 268 272 276 276 277 281 284 286 289 291 290 286 267 263 283 282 278 277 281 287 292 292 289 288 288 286 276 273 279 280 277 282 286 277 262 262 267 266
212 215 218 218 219 220 221 223 225 227 231 238 244 246 246 245 244 242 240 239 239 241 241 242 244 247 250 253 254 256 260 264 268 269 269 270 272 273 275 278 279 280 280 280 278 274 270 267 266 269 271 272 276 280 286 291 291 289 287 273 253 272 279 281 282 283 287 289 286 281 280 286 287 277 269 275 276 273 281 287 279 266 265 266 265
213 216 218 218 219 222 224 225 226 229 233 237 242 245 245 244 242 242 242 240 239 241 242 243 245 249 252 253 254 256 258 259 262 266 266 266 266 266 267 268 271 274 275 277 277 278 278 274 271 273 276 278 280 281 285 291 292 291 290 285 273 276 280 282 285 287 290 293 291 280 270 278 281 271 268 276 274 269 278 285 280 271 266 264 263
214 217 218 219 220 222 225 225 227 231 234 237 240 242 244 244 240 239 240 240 239 240 242 243 245 248 252 252 252 254 256 259 262 265 267 266 263 262 266 268 268 270 271 273 274 277 280 280 280 282 285 287 288 288 290 293 294 293 291 288 286 283 277 275 281 286 289 293 292 279 270 276 279 273 273 278 276 271 275 279 278 273 268 262 259
214 215 217 219 220 223 225 224 225 230 234 237 239 241 242 241 237 235 236 238 238 238 240 242 244 247 251 252 251 252 254 259 263 266 269 267 262 259 262 265 268 271 273 276 276 277 280 283 287 290 293 295 296 297 299 298 297 296 290 285 286 284 278 275 278 281 284 289 288 279 275 279 282 282 282 283 281 276 274 275 275 271 267 263 258
215 217 218 219 220 222 224 224 226 230 234 237 240 241 242 239 236 234 235 235 235 237 239 241 243 247 251 253 253 251 252 258 263 266 267 265 260 258 258 262 267 270 273 276 277 279 282 287 293 297 299 301 301 300 300 298 297 296 288 284 288 287 278 274 278 283 287 289 288 281 275 277 283 286 287 288 284 277 272 271 272 267 261 260 258
216 218 219 219 219 221 224 225 228 231 234 237 241 243 243 240 236 234 233 233 233 235 237 239 242 246 250 253 254 254 254 258 262 265 265 262 258 256 255 258 264 268 271 273 275 279 283 287 293 295 295 296 296 296 296 295 294 293 286 282 284 280 271 271 277 283 288 290 291 286 278 283 290 290 289 291 289 284 275 267 267 265 258 255 255
Height
869 869 870 871 872 872 873 874 875 875 876 876 876 876 877 877 877 877 878 878 878 879 879 880 880 880 880 881 881 882 882 883 883 884 884 884 884 885 885 886 887 887 888 888 888 888 889 889 889 890 890 890 891 891 891 891 891 891 891 892 891 891 891 891 891 891 891 891 891 891 891 890 890 890 890 890 890 889 889 888 888 887 887 886 886
869 870 871 871 872 873 874 875 875 876 877 877 876 877 877 877 878 878 878 879 879 879 879 880 880 880 881 881 881 882 882 883 883 884 884 885 885 885 886 886 887 887 888 888 888 889 889 889 889 890 890 890 891 891 891 891 892 892 892 892 892 892 892 892 892 891 891 891 891 891 891 890 890 890 890 890 889 889 889 888 888 887 886 886 885
870 871 871 872 872 873 874 875 876 876 877 878 877 878 878 878 878 878 879 879 879 879 879 880 880 880 881 881 882 882 883 883 884 884 885 885 885 886 886 886 887 887 888 888 889 889 889 889 890 890 890 890 891 891 891 892 892 892 892 892 892 892 892 892 892 892 892 891 891 891 891 891 890 890 890 890 889 889 888 888 887 887 886 885 885
870 871 872 872 873 874 874 875 876 877 877 878 878 878 878 878 879 879 879 879 879 879 880 880 880 880 881 881 881 882 883 883 884 885 885 885 886 886 886 887 887 888 888 888 889 889 889 889 890 890 890 891 891 891 892 892 892 892 892 892 892 892 892 892 892 892 892 892 891 891 891 891 890 890 890 889 889 888 888 887 887 886 886 885 885
871 872 872 873 873 874 875 875 876 877 878 878 877 877 878 878 879 879 879 879 879 879 880 880 880 880 881 881 881 882 883 883 884 885 885 886 886 886 887 887 887 888 888 888 889 889 889 890 890 890 890 891 891 891 891 892 892 892 892 892 892 892 892 892 892 892 892 892 892 891 891 891 890 890 889 889 888 888 887 887 886 886 885 885 884
871 872 873 873 874 874 875 875 876 877 877 877 877 877 878 878 878 878 879 879 879 880 880 880 881 881 881 881 882 882 883 884 884 885 885 886 886 886 887 887 887 888 888 889 889 889 889 890 890 890 890 890 891 891 891 891 892 892 892 892 892 892 892 892 892 892 892 891 891 891 891 890 890 889 889 889 888 887 887 886 886 885 885 885 884
872 873 873 874 874 875 875 876 876 877 877 877 877 877 878 878 878 878 879 879 879 879 880 880 881 881 881 881 882 882 883 884 884 885 885 885 886 886 887 887 888 888 888 889 889 889 889 889 890 890 890 890 890 890 890 891 891 891 891 891 891 891 891 891 891 891 891 891 891 890 890 890 889 889 889 888 888 887 887 886 886 885 885 884 884
872 873 874 874 875 875 875 876 876 876 877 877 877 878 878 878 878 878 879 879 879 879 880 880 881 881 881 881 882 882 883 884 884 885 885 885 886 886 887 887 888 888 888 889 889 889 889 889 889 889 890 890 890 890 890 890 891 890 890 890 890 891 890 890 890 890 890 890 890 890 890 889 889 889 888 888 887 887 886 886 885 885 884 884 883
872 873 873 874 875 875 876 876 876 876 877 877 877 878 878 878 878 878 879 879 879 880 880 880 880 881 881 881 882 882 883 884 885 885 885 885 886 886 887 887 888 888 888 888 889 889 889 889 889 889 889 890 889 890 890 890 890 890 890 890 890 890 890 890 890 890 890 890 889 889 889 889 888 888 888 887 887 886 886 885 885 884 884 883 883
871 872 873 874 874 875 875 876 876 876 877 877 877 878 878 878 878 879 879 879 879 880 880 880 881 881 881 882 882 883 883 884 885 885 885 886 886 886 887 887 887 888 888 888 889 889 889 889 889 889 889 889 889 889 889 889 889 889 889 889 889 889 889 889 889 889 889 889 889 889 889 888 888 888 887 887 886 886 886 885 885 884 883 883 883
871 872 872 873 874 875 875 876 876 876 877 877 877 877 878 879 879 879 879 879 879 880 880 880 881 881 882 882 882 883 883 884 885 885 885 886 886 886 886 887 887 887 888 888 888 888 888 888 888 889 889 888 888 888 888 889 888 888 888 888 888 888 888 888 888 888 888 888 888 888 888 888 888 887 887 886 886 886 885 885 884 884 883 883 883
870 871 872 873 874 874 875 876 876 876 877 878 878 878 878 879 879 879 879 879 879 880 880 880 881 882 882 882 882 883 883 884 885 885 885 886 886 886 886 887 887 887 887 887 888 888 888 888 888 888 888 888 888 888 888 888 888 887 888 888 887 887 887 887 887 888 888 888 888 888 887 887 887 887 886 886 886 885 885 885 884 884 883 883 883
870 871 872 873 873 874 875 875 876 876 877 877 878 879 879 879 879 879 879 879 880 880 880 881 881 882 882 883 883 883 884 884 885 885 885 886 886 886 886 886 886 886 886 887 887 887 887 887 887 887 887 887 887 887 887 886 886 886 886 886 886 886 887 887 887 887 887 887 887 887 886 886 886 886 886 885 885 885 884 884 884 884 883 883 883
869 870 871 872 873 874 875 875 875 876 876 877 877 878 878 878 878 879 879 879 880 880 880 881 881 882 882 883 883 883 884 884 884 885 885 885 885 885 886 886 886 886 886 886 886 886 887 886 886 887 886 887 886 886 886 886 886 885 885 886 886 886 886 886 886 886 886 886 886 886 885 885 885 885 885 885 884 884 884 884 883 883 883 883 883
868 869 870 872 873 874 874 875 875 875 876 876 877 877 878 878 879 879 879 879 880 880 881 881 882 882 882 883 884 884 884 884 884 884 885 885 885 885 885 885 886 886 885 886 886 886 886 886 886 886 886 886 886 885 885 885 885 884 884 884 885 885 885 885 885 885 885 885 885 885 885 884 884 884 884 884 883 883 883 883 883 883 883 883 883
867 868 869 871 872 873 874 874 875 875 876 876 876 877 878 878 879 879 879 880 880 880 881 881 882 882 883 884 884 885 886 884 883 883 884 884 884 884 885 885 885 885 885 885 886 885 885 885 885 885 885 885 885 885 885 884 884 884 883 883 883 884 884 884 884 884 884 884 884 883 883 883 883 883 883 883 883 882 882 882 882 882 882 882 882
866 867 868 869 870 872 873 873 874 875 875 876 876 877 877 878 878 878 879 879 880 880 881 881 882 882 883 884 885 886 886 883 883 883 883 883 884 884 884 884 885 884 885 885 885 885 885 885 884 884 884 884 884 884 884 884 883 883 883 883 883 883 883 883 883 883 883 883 883 882 882 882 882 882 882 882 882 881 881 881 881 881 881 881 881
865 866 867 868 869 870 872 873 873 874 874 875 876 876 877 877 878 878 879 879 880 881 881 881 882 882 883 884 885 886 885 883 884 884 883 882 883 883 883 884 884 884 884 884 884 884 884 884 884 884 884 883 883 883 883 883 882 882 882 882 882 882 882 882 882 882 882 882 882 882 881 881 881 881 881 881 881 880 880 880 880 880 880 880 880
864 865 866 867 868 869 870 872 872 873 874 874 875 875 876 876 877 877 878 879 880 880 881 882 882 883 883 884 884 885 885 885 885 885 885 883 882 882 883 883 883 883 883 883 883 883 883 883 883 883 883 882 882 882 882 882 881 881 881 881 881 881 881 881 881 881 881 881 881 881 881 881 880 880 880 880 880 879 879 879 879 879 879 879 879
863 863 864 866 867 868 869 870 871 872 873 874 874 875 875 876 876 877 878 878 879 880 881 882 882 883 883 884 884 884 885 885 885 885 885 885 882 881 881 882 882 882 882 882 882 882 882 882 882 882 882 882 881 881 881 881 881 880 880 880 880 880 880 880 880 880 880 880 880 880 880 880 880 880 879 879 879 879 879 879 879 879 879 879 879
861 862 863 864 865 867 868 869 870 871 872 873 873 874 875 875 876 876 877 878 879 880 881 881 882 883 883 883 884 884 884 885 885 884 884 885 883 880 880 881 880 880 881 881 881 881 881 881 881 881 881 881 881 880 880 880 880 880 879 879 879 879 879 879 879 879 879 879 879 879 879 879 879 879 879 878 878 878 878 878 878 878 878 878 878
860 861 862 863 864 865 866 868 869 870 871 872 873 873 874 875 875 876 877 877 878 879 880 881 881 882 883 883 884 884 884 884 884 884 883 884 884 881 879 879 879 879 880 880 880 880 880 880 880 880 880 880 880 880 879 879 879 879 879 878 878 878 878 878 878 878 878 878 878 878 878 878 878 878 878 878 878 878 877 877 877 877 877 877 877
858 859 860 861 863 864 865 866 868 869 870 871 872 873 873 874 875 875 876 877 878 878 879 880 881 881 882 882 883 883 884 883 883 884 883 883 883 881 879 879 879 879 879 879 879 879 879 879 879 879 879 879 879 878 878 878 878 878 878 878 877 877 877 877 877 877 877 877 877 877 877 877 877 877 877 877 877 877 877 876 876 876 876 876 876
856 857 858 860 861 862 864 865 866 867 868 870 871 872 873 873 874 875 875 876 877 878 878 879 880 881 881 882 882 882 883 883 883 884 884 883 883 882 880 880 879 879 878 878 878 878 877 877 877 877 877 877 877 877 877 877 877 877 877 876 876 876 876 876 876 875 875 875 875 875 875 875 875 875 875 875 875 875 875 875 875 875 875 875 874
853 854 856 858 859 861 862 863 864 866 867 868 869 870 871 872 873 874 874 875 876 876 877 878 879 879 880 881 881 881 882 882 883 883 883 883 883 882 880 880 880 878 878 877 877 876 876 876 876 875 875 875 875 875 875 876 875 875 875 875 875 875 875 874 874 874 874 874 873 873 873 873 873 874 874 874 874 874 874 874 874 874 873 873 873
850 852 854 855 857 859 860 861 863 864 865 866 868 869 870 870 871 872 873 874 875 875 876 876 877 878 879 879 880 880 881 881 882 882 882 882 882 882 881 880 879 878 877 877 876 876 875 874 874 874 873 873 873 874 874 874 874 874 874 874 873 873 873 873 873 872 872 872 872 872 872 871 872 872 872 872 872 872 872 872 872 872 871 871 871
848 850 852 854 855 857 859 860 861 862 863 865 866 867 868 869 870 870 871 872 873 874 874 875 876 876 877 878 878 879 879 880 880 881 881 881 881 881 881 881 880 878 876 875 875 874 874 873 873 872 872 872 872 872 872 872 872 872 872 872 872 871 871 871 871 870 870 870 870 869 869 870 870 870 870 870 870 870 870 870 870 869 869 869 869
846 848 850 852 853 855 857 858 859 860 861 863 864 865 866 867 868 868 869 870 871 872 873 873 874 875 875 876 876 877 878 878 879 879 879 880 880 880 880 880 881 880 877 875 873 872 872 872 872 871 871 870 870 870 870 870 870 870 870 870 869 869 869 869 868 868 868 867 867 867 867 867 868 868 868 868 868 867 867 867 867 867 867 866 866
844 846 848 850 851 853 854 856 857 858 859 860 862 863 864 865 866 867 867 868 869 870 871 872 872 873 874 874 875 875 876 876 877 877 878 878 878 879 879 879 880 880 879 877 873 871 871 871 870 870 869 869 869 869 869 869 868 868 868 867 867 866 866 865 865 865 865 865 865 865 865 865 865 865 865 865 864 864 864 864 864 864 864 864 863
841 843 846 847 849 851 852 854 855 856 857 858 860 861 862 863 864 864 865 866 867 868 869 870 871 872 872 873 873 873 874 874 875 875 876 876 876 877 877 878 878 878 878 877 873 869 869 869 869 868 868 867 868 867 867 867 867 866 866 865 864 863 863 862 862 862 862 862 862 862 862 862 862 861 861 861 861 861 861 861 861 861 861 861 860
839 841 843 845 847 848 850 851 853 854 855 856 858 859 860 861 862 863 863 864 865 866 867 868 868 869 870 871 871 872 872 872 873 874 873 874 874 875 875 875 876 876 876 876 873 868 867 867 867 867 866 865 865 865 864 864 864 864 863 862 861 860 860 859 859 858 859 859 858 858 858 858 858 857 857 858 858 858 858 858 858 857 857 857 857
836 838 841 842 844 845 847 849 850 851 852 854 855 856 858 859 860 861 861 862 863 863 864 865 866 867 868 869 869 869 870 871 871 871 871 872 872 873 873 873 874 874 874 874 871 866 864 865 865 864 864 863 862 862 861 861 861 861 860 859 858 858 857 856 855 855 855 855 854 854 854 853 853 853 854 854 854 854 854 853 853 853 853 853 853
834 836 838 839 841 843 845 846 847 849 850 851 853 854 856 857 858 859 859 860 861 861 862 863 864 865 865 866 867 867 868 868 869 869 869 870 870 870 871 871 871 871 871 871 869 864 862 863 862 862 862 861 860 859 858 858 857 857 857 856 855 854 854 853 852 851 851 851 850 850 850 849 849 849 849 849 849 849 848 848 848 848 848 849 850
831 833 835 836 838 840 842 843 844 846 847 849 850 852 853 854 855 856 857 858 859 859 860 860 861 862 863 863 864 865 865 866 866 867 867 868 868 868 869 869 869 869 868 868 868 864 860 859 860 859 859 858 857 856 855 855 855 854 853 852 851 850 850 849 848 847 846 846 845 845 845 844 844 844 844 844 843 843 843 843 843 844 844 845 846
828 830 832 833 835 837 838 840 841 843 845 846 848 849 850 851 852 853 854 855 856 857 857 858 859 860 861 861 862 862 863 863 863 864 864 865 866 866 866 866 866 866 866 865 865 863 859 857 857 857 856 855 854 853 853 852 851 851 850 848 847 846 845 845 844 843 842 841 841 840 840 839 839 839 838 838 837 837 838 838 839 840 840 841 841
825 826 828 830 832 833 835 837 838 840 842 843 845 846 847 848 849 851 852 852 853 854 854 855 856 857 858 858 859 860 861 861 861 861 862 862 863 863 864 864 863 863 863 862 861 861 859 856 854 854 854 853 851 850 850 849 848 847 846 845 844 842 841 841 840 839 838 837 837 836 836 835 834 833 832 832 832 832 832 833 834 835 835 835 836
822 823 825 827 829 830 832 834 835 837 838 840 842 843 844 846 847 848 849 849 850 851 851 852 853 854 855 855 857 858 858 859 859 858 859 860 860 861 861 860 860 860 860 859 858 858 857 854 851 851 851 849 848 847 846 846 845 844 842 841 840 839 838 837 836 835 834 834 833 832 831 830 829 827 826 826 826 826 827 827 827 827 828 829 830
818 820 822 823 825 827 828 830 832 833 835 837 839 840 842 843 844 845 846 846 847 848 848 849 850 851 852 852 854 855 855 855 856 856 856 857 858 859 858 857 857 858 857 857 856 855 854 852 849 848 847 846 845 844 843 843 843 841 840 838 837 836 834 832 832 832 831 829 827 826 825 823 822 821 820 819 819 819 820 820 819 819 821 822 823
815 817 818 820 821 823 825 827 829 830 832 834 835 837 838 840 841 842 843 844 844 845 846 846 847 848 849 849 850 851 851 852 852 853 853 854 855 856 856 855 855 855 855 855 854 853 852 850 848 845 844 843 841 840 840 841 840 839 838 835 834 833 831 828 827 827 826 824 821 819 818 816 815 814 813 813 812 812 812 812 811 811 812 814 815
811 813 815 816 818 820 822 823 825 827 828 830 832 833 835 836 838 839 840 841 842 842 843 844 845 845 846 847 847 848 848 848 849 850 850 850 851 852 853 853 853 853 852 852 851 850 849 848 845 844 842 841 839 838 838 838 837 836 835 834 832 830 827 824 822 821 820 818 816 813 810 810 809 808 808 807 806 806 806 804 803 804 805 807 809
807 809 811 813 815 816 818 819 822 823 825 826 827 829 831 832 834 836 837 838 839 840 840 841 841 842 842 843 844 844 845 845 845 846 846 847 848 849 849 850 850 850 850 849 848 847 846 844 843 841 840 838 838 837 836 835 834 833 833 833 831 828 824 819 815 815 815 813 812 809 806 806 805 803 803 801 800 801 801 799 799 799 802 806 806
803 805 808 810 811 813 814 816 818 819 820 821 822 824 827 829 831 833 834 835 836 837 837 838 838 838 839 840 840 841 841 841 842 842 842 843 843 844 845 846 847 847 847 846 845 843 842 841 840 839 837 835 835 835 834 833 832 831 832 832 830 827 822 816 810 810 812 812 810 806 803 802 802 800 798 796 794 794 794 794 794 796 801 805 804
800 802 804 806 807 809 811 812 814 815 816 816 818 820 823 825 828 830 831 832 833 833 834 834 835 835 836 836 837 837 838 838 838 838 838 839 839 840 841 841 842 843 843 843 842 840 839 837 836 836 834 832 832 832 832 831 830 830 830 831 832 827 820 816 810 806 808 809 808 805 799 797 798 796 793 791 790 789 787 785 787 793 802 803 799
796 798 800 802 803 806 808 809 810 811 811 812 814 816 818 821 824 826 828 829 830 830 830 831 831 832 832 833 833 834 834 834 835 835 835 835 835 836 837 837 837 838 838 839 838 837 836 834 833 832 831 830 829 828 829 828 827 828 827 830 834 826 816 814 810 803 804 807 807 803 795 792 795 793 787 784 783 782 781 779 781 788 794 792 789
792 794 796 798 800 802 804 805 806 807 807 808 809 812 814 817 819 822 825 826 826 827 827 827 828 828 829 829 830 830 830 830 831 832 832 832 832 832 833 833 833 833 833 833 833 833 832 831 829 828 828 828 826 825 826 825 824 825 824 827 831 823 811 809 806 801 802 804 803 800 793 788 790 789 782 777 777 776 773 773 776 778 778 779 782
788 790 792 794 796 797 799 800 802 803 804 804 805 807 810 812 815 818 820 822 823 823 824 824 824 824 825 826 826 826 827 827 827 828 828 829 829 830 830 830 829 828 828 828 828 827 827 827 825 824 824 824 823 822 823 822 821 821 822 823 823 816 808 805 802 799 799 799 798 797 791 785 784 782 776 772 771 769 766 766 769 769 767 771 775
784 786 788 790 792 793 795 797 798 799 800 801 802 804 806 808 812 814 816 818 819 819 820 820 820 821 821 822 822 822 823 823 823 824 825 826 826 827 827 827 826 826 825 824 824 823 822 822 820 819 819 820 820 819 820 820 819 819 819 819 817 812 807 803 799 795 793 792 793 793 788 781 779 776 770 766 766 764 759 758 760 760 761 764 766
780 782 784 786 788 790 791 793 795 795 796 797 798 800 802 805 808 810 812 813 814 815 816 816 817 817 817 818 818 818 819 819 819 820 821 822 823 824 824 824 823 823 822 821 821 819 818 817 816 815 815 815 815 816 816 816 816 816 816 816 813 810 806 802 796 791 787 787 789 789 783 776 774 771 764 761 762 758 753 752 752 752 754 757 759
777 778 780 782 784 786 787 789 790 791 791 793 794 796 799 801 804 806 807 809 810 811 812 812 813 813 813 814 814 815 815 815 815 816 818 819 820 821 820 820 820 819 818 818 817 816 815 814 813 812 812 812 811 811 811 812 812 812 812 810 808 807 803 798 793 787 783 783 786 787 781 773 771 768 761 757 757 753 748 747 747 746 747 749 751
773 775 776 778 780 781 783 784 786 787 788 789 790 792 795 797 800 802 803 805 806 806 807 809 809 809 809 809 810 811 811 810 811 812 814 815 816 817 817 817 816 815 815 815 814 813 812 811 810 810 809 808 808 807 807 808 808 808 808 805 804 803 800 796 791 785 781 779 781 783 777 770 767 765 759 753 750 746 742 740 740 741 741 742 745
769 771 773 774 776 777 778 780 781 783 784 785 786 788 790 793 795 797 800 801 801 802 803 804 805 804 804 805 805 806 806 806 807 808 810 811 812 813 813 814 813 812 811 812 811 810 810 809 809 808 807 806 805 804 804 804 804 804 803 801 800 799 796 793 791 787 781 775 775 777 773 767 764 762 757 752 743 736 735 735 733 734 735 736 739